Погода в Карасу

Россия / Кабардино-Балкарская Республика     43°17′45″N   43°24′48″E
темп.,
°C
ветер,
м/с
пор.,
м/с
влажн.,
%
обл.,
%
осадки,
мм/ч
давл.,
гПа
погр.,
м
11 мая, вт
вт1100:00−4юз338833 0.5 102387
03:00−6юз44792 0.5 102235
06:00−1юз22655 0.0 102059
09:00+5всв235233 0.0 1015687
12:00+8всв44504 0.0 10131145
15:00+9всв44549 0.0 10131110
18:00+6всв337418 0.0 1015427
21:00+2юз227024 0.0 101723
12 мая, ср
ср1200:00+2юз33570 0.0 101727
03:00+2юз33600 0.0 101624
06:00+5зюз12620 0.0 101534
09:00+9всв32625 0.0 1014537
12:00+11всв436435 0.0 1014855
15:00+12всв436732 0.0 1015785
18:00+10всв228118 0.0 1016314
21:00+6юз33670 0.0 101625
13 мая, чт
чт1300:00+7юз43580 0.0 101536
03:00+8юз44570 0.0 101438
06:00+10юз44580 0.0 101445
09:00+17всв12451 0.0 1013532
12:00+19всв33475 0.0 10131037
15:00+19всв435632 0.0 1014913
18:00+15в22784 0.3 1015270
21:00+11юз4360100 0.3 101732
14 мая, пт
пт1400:00+12юз445597 0.0 101555
03:00+12юз55525 0.0 101562
06:00+13юз55565 0.0 101560
09:00+21св21385 0.0 1013831
12:00+22всв433914 0.0 10131401
15:00+22всв334614 0.5 10131134
18:00+18всв227482 0.6 1014169
21:00+13юз446993 0.9 101644
15 мая, сб
сб1500:00+13юз55630 0.0 101560
03:00+13юз56535 0.0 101566
06:00+14юз55525 0.0 101560
09:00+21св22384 0.0 1014869
12:00+22всв43473 0.1 10151404
15:00+19ссв337161 4.1 1016770
18:00+16всв028489 8.8 101751
21:00+12юз229297 17.3 101927